記事タイトル:Comet P/2002 LZ11 (LINEAR) 

最新の情報は「更新」や「再読み込み」ボタンを押してリロードしてご覧ください。

書き込み欄へ  ヘルプ
お名前: 佐藤 裕久   
LINEARプロジェクトによって発見されていた小惑星状の天体2002 LZ11(MPEC 2002-L64で
彗星らしい軌道を示した)は、その後の再観測では小惑星状であったが、2003年10月29日、
E. Christensen(アリゾナ大学)が 偶然Catalina Sky Survey (0.68-m f/1.8 Schmidt)
の画像から得たCCD画像から彗星状であることがわかった。
11月18日、J. Young (Table Mountain天文台、0.61-m 反射+CCD)の観測では、7″の丸い
コマとp.a. 190-280°に15″-20″の扇型の尾が見える。

発見位置は次のとおり、

     2002 UT             R.A. (2000) Decl.       Mag.
     June  5.29966   17 47 23.52   -14 14 39.8   18.1

B. G. Marsdenによる楕円軌道要素と位置推算表は次のとおり、

Orbital elements:
    P/2002 LZ11 (LINEAR)
Epoch 2003 Mar. 22.0 TT = JDT 2452720.5
T 2003 Mar. 15.6630 TT                                  MPCM
q   2.370483             (2000.0)            P               Q
n   0.1409584      Peri.  107.9740      +0.9193867      +0.3613108
a   3.656582       Node   231.1424      -0.3915858      +0.8781443
e   0.351722       Incl.   11.5194      +0.0372646      +0.3135554
P   6.99
From 69 observations 2002 June 5-2003 Nov. 2, mean residual 0".7.

Ephemeris:
    P/2002 LZ11 (LINEAR)
Date    TT    R. A. (2000) Decl.     Delta      r     Elong.  Phase   m1    m2
2003 11 17    02 43.58   +17 05.0    1.855    2.833   169.5     3.6  16.9  18.9
2003 11 22    02 40.34   +16 28.6    1.888    2.849   163.6     5.6  16.9  19.1
2003 11 27    02 37.47   +15 54.3    1.927    2.865   157.7     7.5  17.0  19.3
2003 12 02    02 35.07   +15 22.9    1.973    2.881   151.9     9.3  17.1  19.4
2003 12 07    02 33.19   +14 54.6    2.025    2.897   146.3    10.9  17.2  19.5
2003 12 12    02 31.84   +14 29.9    2.083    2.913   140.8    12.3  17.2  19.7
2003 12 17    02 31.06   +14 09.0    2.146    2.929   135.4    13.6  17.3  19.8
2003 12 22    02 30.84   +13 51.9    2.214    2.946   130.2    14.8  17.4  19.9
2003 12 27    02 31.19   +13 38.6    2.286    2.962   125.1    15.8  17.5  20.0
2004 01 01    02 32.08   +13 29.0    2.361    2.979   120.1    16.6  17.6  20.1
2004 01 06    02 33.50   +13 23.0    2.440    2.995   115.3    17.3  17.7  20.2
2004 01 11    02 35.42   +13 20.2    2.521    3.012   110.7    17.8  17.8  20.3
2004 01 16    02 37.80   +13 20.5    2.604    3.028   106.1    18.2  17.9  20.4
2004 01 21    02 40.63   +13 23.5    2.689    3.045   101.7    18.4  18.0  20.5
2004 01 26    02 43.86   +13 29.0    2.775    3.062    97.4    18.6  18.1  20.6

(IAUC 8240)
[2003年11月19日 23時12分42秒]

この記事への返信をどうぞ。
氏名
E-mail URL



記事一覧に戻る